www.pogodaiklimat.ru

Погода и климат >> Архив погоды >> Мадагаскар >> Толанаро


ПОГОДА в Толанаро

  • Прогноз погоды в Толанаро
  • Монитор погоды в Толанаро

АРХИВ ПОГОДЫ в Толанаро

Время (UTC), дата Ветер
(напр.,м/с)
 
Видим.   Явления Облачность Т
(С)
Тd
(С)
f
(%)
Тe
(С)
Тes
(С)
Комфортность P
(гПа)
Po
(гПа)
Тmin
(С)
Tmax
(С)
R
(мм)
R24
(мм)
S
(см)
18 12.06 В 3 20 км 4/4 480 м
[Cu Sc]
+21.2 +17.3 78 +25 +25 комфорт 1023.6 1022.6 +24.2
21 12.06 СВ 4 20 км 3/3 480 м
[Cu Sc]
+21.0 +17.8 82 +25 +25 комфорт 1023.9 1022.9
00 13.06 В 4 20 км 3/3 480 м
[Cu Sc]
+20.4 +17.7 84 +24 +24 комфорт 1022.9 1021.9
03 13.06 В 3 20 км 3/3 480 м
[Cu Sc]
+20.1 +16.5 80 +23 +23 комфорт 1022.2 1021.2
06 13.06 СВ 4 30 км 3/3 600 м
[Cu Sc]
+24.1 +15.7 59 +27 +29 жарко 1022.8 1021.8 +19.5 +24.2
09 13.06 СВ 6 30 км 3/3 600 м
[Cu Sc]
+26.0 +13.5 46 +28 +31 жарко 1021.8 1020.8
12 13.06 В 8 30 км 3/3 600 м
[Cu Sc]
+25.4 +16.7 59 +29 +29 душно 1020.0 1019.0
15 13.06 СВ 6 20 км 1/1 480 м
[Cu Sc]
+22.5 +15.9 66 +27 +27 душно 1020.2 1019.2 +26.2
18 13.06 СВ 6 20 км 1/1 600 м
[Cu med, cong]
+22.7 +14.8 61 +26 +26 жарко 1020.7 1019.7 +26.2
21 13.06 В 2 20 км 1/1 480 м
[Cu med, cong]
+19.5 +14.4 72 +22 +22 комфорт 1020.5 1019.5
00 14.06 штиль 0 20 км 1/1 480 м
[Cu med, cong]
+16.7 +14.1 85 +17 +17 1019.8 1018.8
03 14.06 штиль 0 25 км 1/1 480 м
[Cu med, cong]
+16.5 +13.3 81 +16 +16 1020.5 1019.5
06 14.06 С 2 30 км 1/1 600 м
[Cu Sc]
+21.5 +14.7 65 +25 +28 комфорт 1022.1 1021.1 +16.0 +26.2
09 14.06 З 5 30 км 3/3 600 м
[Cu Sc]
+25.0 +12.8 47 +27 +30 жарко 1020.9 1019.9
12 14.06 З 5 30 км 1/1 700 м
[Cu Sc]
+25.0 +16.2 58 +28 +30 жарко 1019.9 1018.9
15 14.06 СЗ 3 30 км 4/4 600 м
[Cu Sc]
+21.5 +16.6 74 +25 +25 комфорт 1020.7 1019.7 +25.3
18 14.06 СЗ 3 20 км 9/9 480 м
[Cu Sc]
+20.8 +17.9 83 +25 +25 комфорт 1021.9 1020.9 +25.3
21 14.06 С 4 8000 м слаб. дождь 10/10 480 м
[Cu Sc]
+18.5 +17.7 95 +19 +19 1022.5 1021.5 12
00 15.06 С 3 8000 м в посл. час дождь 10/10 480 м
[Cu Sc]
+18.6 +18.3 98 +20 +20 1021.8 1020.8 15
03 15.06 С 2 8000 м слаб. дождь 9/9 480 м
[Cu Sc]
+18.9 +18.3 96 +21 +21 комфорт 1022.2 1021.2 20
06 15.06 Ю 4 20 км {дождь} 9/9 480 м
[Cu Sc]
+21.0 +16.7 76 +25 +25 комфорт 1024.3 1023.3 +18.4 +25.3 20
09 15.06 Ю 4 20 км 9/9 600 м
[Cu Sc]
+22.0 +15.5 67 +26 +26 душно 1024.0 1023.0 0.0
12 15.06 Ю 3 20 км 9/9 600 м
[Cu Sc]
+21.4 +24.6 100 +27 +28 душно 1023.2 1022.2
15 15.06 Ю 2 20 км 9/9 480 м
[Cu Sc]
+20.5 +14.2 67 +24 +24 комфорт 1023.5 1022.5 +22.0
18 15.06 СВ 1 20 км 9/9 600 м
[Cu Sc]
+21.0 +13.6 63 +25 +25 комфорт 1024.2 1023.2 +22.0
21 15.06 В 2 20 км 9/9 600 м
[Cu Sc]
+20.6 +14.3 67 +24 +24 комфорт 1024.0 1023.0
00 16.06 штиль 0 20 км 9/9 1200 м
[Sc]
+19.4 +13.9 70 +21 +21 комфорт 1023.8 1022.8
03 16.06 Ю 1 20 км 9/9 1200 м
[Sc]
+19.4 +23.4 100 +23 +23 комфорт 1024.1 1023.1
06 16.06 СВ 2 30 км 3/3 600 м
[Cu Sc]
+22.8 +14.4 59 +26 +29 жарко 1025.2 1024.2 +18.8 +22.0
09 16.06 В 6 30 км 6/6 600 м
[Cu Sc]
+23.6 +14.6 57 +26 +28 жарко 1024.7 1023.7
12 16.06 В 5 30 км 6/6 600 м
[Cu Sc]
+23.6 +14.9 58 +26 +27 жарко 1023.3 1022.3
15 16.06 СВ 4 25 км 8/8 480 м
[Cu Sc]
+21.6 +14.9 66 +25 +25 комфорт 1023.8 1022.8 +23.7
18 16.06 СВ 2 25 км 6/6 480 м
[Cu Sc]
+20.6 +17.4 82 +25 +25 комфорт 1025.2 1024.2 +23.7
21 16.06 В 3 25 км 6/6 480 м
[Cu Sc]
+21.0 +13.8 63 +24 +24 комфорт 1025.4 1024.4
00 17.06 СВ 2 25 км 8/8 480 м
[Cu Sc]
+20.2 +15.9 76 +23 +23 комфорт 1024.2 1023.2
03 17.06 штиль 0 25 км 8/8 480 м
[Cu Sc]
+19.8 +15.8 78 +22 +22 комфорт 1025.1 1024.1
06 17.06 СВ 3 30 км 6/6 600 м
[Cu Sc]
+23.2 +14.6 58 +27 +28 душно 1026.0 1025.0 +19.1 +23.7
09 17.06 В 5 30 км 6/6 600 м
[Cu Sc]
+24.4 +14.9 55 +27 +29 жарко 1025.3 1024.3
12 17.06 В 7 30 км 5/5 600 м
[Cu Sc]
+22.9 +19.3 80 +29 +30 очень
душно
1023.9 1022.9
15 17.06 В 3 20 км 3/3 600 м
[Cu Sc]
+20.7 +15.3 71 +24 +24 комфорт 1024.0 1023.0 +24.6
18 17.06 В 2 20 км 3/3 480 м
[Cu Sc]
+20.6 +15.9 74 +24 +24 комфорт 1024.4 1023.4 +24.6
21 17.06 СВ 3 20 км 5/5 480 м
[Cu Sc]
+20.9 +16.1 74 +25 +25 комфорт 1024.4 1023.4
00 18.06 СВ 4 20 км 5/5 480 м
[Cu Sc]
+20.4 +16.4 78 +24 +24 комфорт 1023.9 1022.9
03 18.06 С 2 20 км 4/4 480 м
[Cu Sc]
+20.7 +15.3 71 +24 +24 комфорт 1022.8 1021.8
06 18.06 СВ 5 30 км 1/1 600 м
[Cu Sc]
+23.0 +13.8 56 +26 +28 жарко 1023.1 1022.1 +18.6 +24.6
09 18.06 СВ 7 30 км 1/1 600 м
[Cu Sc]
+25.8 +14.5 50 +28 +31 жарко 1021.2 1020.2
12 18.06 В 8 30 км 3/1 600 м
[Cu Sc Ci sp]
+25.0 +17.5 63 +29 +30 душно 1019.4 1018.4
15 18.06 СВ 6 20 км 4/3 480 м
[Cu Sc Ci sp]
+22.0 +16.4 71 +26 +26 душно 1019.5 1018.5 +26.0
21 18.06 СВ 6 20 км 1/1 480 м
[Cu Sc]
+20.8 +15.8 73 +24 +24 комфорт 1018.7 1017.7
00 19.06 З 3 20 км 1/1 480 м
[Cu Sc]
+17.9 +15.4 85 +18 +18 1017.4 1016.4
03 19.06 СЗ 2 20 км 1/1 480 м
[Cu Sc]
+16.7 +14.5 87 +17 +17 1018.0 1017.0
06 19.06 СЗ 3 30 км 4/4 600 м
[Cu Sc]
+21.0 +15.1 69 +25 +27 комфорт 1018.8 1017.8 +16.5 +26.0
09 19.06 ЮВ 4 30 км 4/4 600 м
[Cb calv]
+24.0 +15.8 60 +27 +31 жарко 1018.6 1017.6
12 19.06 Ю 3 30 км 5/5 700 м
[Cu Sc Ac trans]
+23.6 +15.7 61 +27 +28 жарко 1018.9 1017.9

 

Местоположение метеостанции Толанаро (Мадагаскар): широта -25.03 долгота 46.95 высота над уровнем моря 9 м.

В архиве по умолчанию представлена погода в Толанаро за последнюю неделю. Архивные данные за месяц целиком и за предыдущие месяцы, начиная с января 2011 года, Вы можете получить, выбрав интересующий диапазон дат из раскрывающегося списка и нажав кнопку "Ввод!".


*Определитесь, кто Вы:
робот инопланетянин человек

Внимание! Время в таблицах - всемирное. Для получения местного времени необходимо прибавить поправку, которая равна 3 ч.

Смотрите также архив погоды в соседних городах и на ближайших метеорологических станциях:

Погода в Раноайре (Мадагаскар) (166 км)
Погода в Фарафангане (Мадагаскар) (264 км)
Погода в Тулиаре (Мадагаскар) (375 км)
Погода в Фианаранцуа (Мадагаскар) (398 км)
Погода в Манандзари (Мадагаскар) (408 км)
Погода в Моромбе (Мадагаскар) (516 км)
Погода в Анцирабе (Мадагаскар) (581 км)
Погода в Мурундаве (Мадагаскар) (593 км)
Погода в Мааноро (Мадагаскар) (609 км)
Погода в Антананариву (Мадагаскар) (687 км)

Пояснения к столбцам:

Ветер - указаны скорость ветра в м/с - средняя за 10 мин, порывы в срок и между сроками (в фигурных скобках) и направление, откуда дует ветер: С - северный, СВ - северо-восточный, В - восточный, ЮВ - юго-восточный, Ю - южный, ЮЗ - юго-западный, З - западный, СЗ - северо-западный.
Видимость - горизонтальная дальность видимости в метрах или километрах. При видимости от 1 до 10 км при отсутствии осадков обычно наблюдается дымка, при ухудшении видимости до 1 км и менее - туман. В сухую погоду видимость может ухудшаться дымом, пылью или мглою.
Явления - указаны атмосферные явления, наблюдавшиеся в срок или в последний час перед сроком; фигурными скобками обозначены явления, наблюдавшиеся между сроками (за 1-3 часа до срока); квадратными скобками обозначены град или гололедные отложения с указанием их диаметра в мм.
Облачность - указаны через наклонную черту общая и нижняя облачность в баллах и высота нижней границы облаков в метрах; квадратными скобками обозначены формы облаков: Ci - перистые, Cs - перисто-слоистые, Cc - перисто-кучевые, Ac - высококучевые, As - высокослоистые, Sc - слоисто-кучевые, Ns - слоисто-дождевые, Cu - кучевые, Cb - кучево-дождевые. Подробнее классификацию облаков см. в Атласе облаков (PDF).
T - Температура воздуха - температура, измеренная на высоте 2 м над землей.
Td - Температура точки росы - температура, при понижении до которой содержащийся в воздухе водяной пар достигнет насыщения.
f - Относительная влажность воздуха - влажноcть воздуха, измеренная на высоте 2 м над землей.
Te - Эффективная температура - температура, которую ощущает одетый по сезону человек в тени. Характеристика душности погоды. При расчете учитывается влияние влажности воздуха и скорости ветра на теплоощущения человека.
Tes - Эффективная температура на солнце - температура, которую ощущает человек, с поправкой на солнечный нагрев. Характеристика знойности погоды. Зависит от высоты солнца над горизонтом, облачности и скорости ветра. Ночью, в пасмурную погоду, а также при ветре 12 м/с и более поправка равна нулю.
P - Атмосферное давление - приведенное к уровню моря атмосферное давление.
Po - Атмосферное давление - измеренное на уровне метеостанции атмосферное давление.
Tmin - Минимальная температура - минимум температуры воздуха на высоте 2 м над землей.
Tmax - Максимальная температура - максимум температуры воздуха на высоте 2 м над землей.
R - Количество осадков - Количество выпавших осадков за период времени, мм. При наведении курсора мыши на число - период времени, за который выпало указанное количество осадков.
R24 - Количество осадков - Количество выпавших осадков за 24 часа, мм.
S - Снежный покров - Высота снежного покрова, см. При наведении курсора мыши на число - состояние снежного покрова и степень покрытия местности в баллах.